Location: Morlupo
(42.1333°N, 12.5000°E)
Time: 16:43:01
(UTC+00:00)

Okean-O - Pass Details

Date: 18 September 2020
Orbit: 639 x 641 km, 98.2° (Epoch: 26 October)

Event Time Altitude Azimuth Distance (km) Brightness Sun altitude
Rises 18:04:27 0° 182° (S) 2,931 5.9 -10.2°
Reaches altitude 10° 18:06:44 10° 189° (S) 2,027 5.2 -10.6°
Maximum altitude 18:10:56 43° 261° (W) 909 4.0 -11.3°
Drops below altitude 10° 18:15:10 10° 333° (NNW) 2,042 5.8 -12.1°
Sets 18:17:29 0° 340° (NNW) 2,956 6.5 -12.5°
